Time,TemperatureF,DewpointF,PressureIn,WindDirection,WindDirectionDegrees,WindSpeedMPH,WindSpeedGustMPH,Humidity,HourlyPrecipIn,Conditions,Clouds,dailyrainin,SoftwareType,DateUTC
2013-03-13 12:41:00,35.0,23.3,30.20,NW,325,26.0,26.0,62,0.00,,,0.00,Wunderground v.1.15,2013-03-13 17:41:00,
2013-03-13 12:42:00,35.1,23.4,30.21,NW,310,26.0,30.0,62,0.00,,,0.00,Wunderground v.1.15,2013-03-13 17:42:00,
2013-03-13 12:47:00,35.5,23.8,30.21,WNW,291,17.0,30.0,62,0.00,,,0.00,Wunderground v.1.15,2013-03-13 17:47:00,
2013-03-13 12:52:00,36.3,24.5,30.20,WNW,300,22.0,27.0,62,0.00,,,0.00,Wunderground v.1.15,2013-03-13 17:52:00,
2013-03-13 12:58:00,35.9,23.4,30.20,WNW,290,13.0,29.0,60,0.00,,,0.00,Wunderground v.1.15,2013-03-13 17:58:00,
2013-03-13 13:02:00,35.1,22.6,30.20,SW,229,14.0,28.0,60,0.00,,,0.00,Wunderground v.1.15,2013-03-13 18:02:00,
2013-03-13 13:08:00,35.6,23.9,30.20,NW,322,18.0,28.0,62,0.00,,,0.00,Wunderground v.1.15,2013-03-13 18:08:00,
2013-03-13 13:12:00,36.6,23.6,30.20,ESE,110,5.0,30.0,59,0.00,,,0.00,Wunderground v.1.15,2013-03-13 18:12:00,
2013-03-13 13:17:00,36.9,23.1,30.19,NW,324,14.0,30.0,57,0.00,,,0.00,Wunderground v.1.15,2013-03-13 18:17:00,
2013-03-13 13:22:00,37.4,24.0,30.19,NW,324,24.0,25.0,58,0.00,,,0.00,Wunderground v.1.15,2013-03-13 18:22:00,
2013-03-13 13:27:00,38.4,25.3,30.20,ESE,120,11.0,29.0,59,0.00,,,0.00,Wunderground v.1.15,2013-03-13 18:27:00,
2013-03-13 13:33:00,38.4,23.6,30.19,NW,311,18.0,28.0,55,0.00,,,0.00,Wunderground v.1.15,2013-03-13 18:33:00,
2013-03-13 13:38:00,37.6,23.7,30.19,WNW,301,13.0,28.0,57,0.00,,,0.00,Wunderground v.1.15,2013-03-13 18:38:00,
2013-03-13 13:43:00,36.8,22.6,30.19,NNW,342,22.0,33.0,56,0.00,,,0.00,Wunderground v.1.15,2013-03-13 18:43:00,
2013-03-13 13:48:00,36.6,22.4,30.19,NNW,329,16.0,33.0,56,0.00,,,0.00,Wunderground v.1.15,2013-03-13 18:48:00,
2013-03-13 13:53:00,37.1,22.8,30.18,West,270,16.0,27.0,56,0.00,,,0.00,Wunderground v.1.15,2013-03-13 18:53:00,
2013-03-13 13:58:00,37.3,22.2,30.18,NNW,342,16.0,32.0,54,0.00,,,0.00,Wunderground v.1.15,2013-03-13 18:58:00,
2013-03-13 14:03:00,38.1,22.5,30.18,NW,309,6.0,24.0,53,0.00,,,0.00,Wunderground v.1.15,2013-03-13 19:03:00,
2013-03-13 14:08:00,38.9,22.3,30.18,SSE,163,7.0,35.0,51,0.00,,,0.00,Wunderground v.1.15,2013-03-13 19:08:00,
2013-03-13 14:13:00,39.0,22.4,30.19,West,279,22.0,31.0,51,0.00,,,0.00,Wunderground v.1.15,2013-03-13 19:13:00,
2013-03-13 14:18:00,38.7,22.1,30.19,WNW,294,9.0,31.0,51,0.00,,,0.00,Wunderground v.1.15,2013-03-13 19:18:00,
2013-03-13 14:23:00,37.3,21.7,30.19,NW,314,23.0,32.0,53,0.00,,,0.00,Wunderground v.1.15,2013-03-13 19:23:00,
2013-03-13 14:28:00,36.8,22.6,30.19,WNW,292,27.0,33.0,56,0.00,,,0.00,Wunderground v.1.15,2013-03-13 19:28:00,
2013-03-13 14:34:00,36.6,20.6,30.18,NW,320,30.0,40.0,52,0.00,,,0.00,Wunderground v.1.15,2013-03-13 19:34:00,
2013-03-13 14:39:00,36.5,21.0,30.20,WNW,286,14.0,40.0,53,0.00,,,0.00,Wunderground v.1.15,2013-03-13 19:39:00,
2013-03-13 14:44:00,37.0,22.3,30.19,WNW,294,28.0,28.0,55,0.00,,,0.00,Wunderground v.1.15,2013-03-13 19:44:00,
2013-03-13 14:49:00,36.8,21.3,30.19,NW,318,26.0,30.0,53,0.00,,,0.00,Wunderground v.1.15,2013-03-13 19:49:00,
2013-03-13 14:54:00,36.4,20.9,30.19,North,5,10.0,37.0,53,0.00,,,0.00,Wunderground v.1.15,2013-03-13 19:54:00,
2013-03-13 14:59:00,36.1,21.0,30.19,WNW,290,7.0,37.0,54,0.00,,,0.00,Wunderground v.1.15,2013-03-13 19:59:00,
2013-03-13 15:04:00,36.1,21.0,30.18,West,281,31.0,31.0,54,0.00,,,0.00,Wunderground v.1.15,2013-03-13 20:04:00,
2013-03-13 15:09:00,36.0,20.9,30.19,NW,305,29.0,34.0,54,0.00,,,0.00,Wunderground v.1.15,2013-03-13 20:09:00,
2013-03-13 15:14:00,36.2,20.7,30.18,NW,309,27.0,35.0,53,0.00,,,0.00,Wunderground v.1.15,2013-03-13 20:14:00,
2013-03-13 15:19:00,36.1,21.0,30.18,NW,306,31.0,35.0,54,0.00,,,0.00,Wunderground v.1.15,2013-03-13 20:19:00,
2013-03-13 15:24:00,35.8,21.2,30.19,NW,309,24.0,34.0,55,0.00,,,0.00,Wunderground v.1.15,2013-03-13 20:24:00,
2013-03-13 15:29:00,35.8,22.0,30.19,West,265,19.0,34.0,57,0.00,,,0.00,Wunderground v.1.15,2013-03-13 20:29:00,
2013-03-13 15:34:00,36.1,21.9,30.19,NNE,31,12.0,31.0,56,0.00,,,0.00,Wunderground v.1.15,2013-03-13 20:34:00,
2013-03-13 15:39:00,36.5,21.0,30.20,WNW,302,23.0,40.0,53,0.00,,,0.00,Wunderground v.1.15,2013-03-13 20:39:00,
2013-03-13 15:44:00,36.4,20.9,30.19,NW,309,22.0,31.0,53,0.00,,,0.00,Wunderground v.1.15,2013-03-13 20:44:00,
2013-03-13 15:49:00,36.3,22.1,30.20,NW,306,22.0,31.0,56,0.00,,,0.00,Wunderground v.1.15,2013-03-13 20:49:00,
2013-03-13 15:54:00,36.1,21.5,30.20,NNE,16,14.0,28.0,55,0.00,,,0.00,Wunderground v.1.15,2013-03-13 20:54:00,
2013-03-13 15:59:00,36.0,21.4,30.20,WNW,298,25.0,30.0,55,0.00,,,0.00,Wunderground v.1.15,2013-03-13 20:59:00,
2013-03-13 16:04:00,36.3,21.2,30.20,NNW,338,23.0,30.0,54,0.00,,,0.00,Wunderground v.1.15,2013-03-13 21:04:00,
2013-03-13 16:09:00,36.7,21.2,30.21,NW,326,17.0,30.0,53,0.00,,,0.00,Wunderground v.1.15,2013-03-13 21:09:00,
2013-03-13 16:14:00,37.1,21.5,30.21,NNW,331,20.0,26.0,53,0.00,,,0.00,Wunderground v.1.15,2013-03-13 21:14:00,
2013-03-13 16:19:00,36.6,21.1,30.20,NNE,16,7.0,30.0,53,0.00,,,0.00,Wunderground v.1.15,2013-03-13 21:19:00,
2013-03-13 16:24:00,36.1,20.2,30.20,WNW,302,26.0,34.0,52,0.00,,,0.00,Wunderground v.1.15,2013-03-13 21:24:00,
2013-03-13 16:29:00,35.8,20.8,30.21,NNW,329,8.0,34.0,54,0.00,,,0.00,Wunderground v.1.15,2013-03-13 21:29:00,
2013-03-13 16:34:00,35.8,20.3,30.21,WNW,302,31.0,32.0,53,0.00,,,0.00,Wunderground v.1.15,2013-03-13 21:34:00,
2013-03-13 16:39:00,35.9,20.9,30.21,NW,306,24.0,32.0,54,0.00,,,0.00,Wunderground v.1.15,2013-03-13 21:39:00,
2013-03-13 16:44:00,36.6,21.5,30.21,ESE,109,5.0,26.0,54,0.00,,,0.00,Wunderground v.1.15,2013-03-13 21:44:00,
2013-03-13 16:49:00,37.3,21.3,30.22,WNW,299,24.0,29.0,52,0.00,,,0.00,Wunderground v.1.15,2013-03-13 21:49:00,
2013-03-13 16:54:00,37.0,21.0,30.21,NW,312,18.0,36.0,52,0.00,,,0.00,Wunderground v.1.15,2013-03-13 21:54:00,
2013-03-13 16:59:00,36.9,21.3,30.21,NNW,342,18.0,36.0,53,0.00,,,0.00,Wunderground v.1.15,2013-03-13 21:59:00,
2013-03-13 17:04:00,37.1,21.5,30.21,ESE,123,8.0,35.0,53,0.00,,,0.00,Wunderground v.1.15,2013-03-13 22:04:00,
2013-03-13 17:09:00,37.3,20.8,30.22,WNW,294,18.0,35.0,51,0.00,,,0.00,Wunderground v.1.15,2013-03-13 22:09:00,
2013-03-13 17:14:00,37.5,21.5,30.22,WSW,239,9.0,30.0,52,0.00,,,0.00,Wunderground v.1.15,2013-03-13 22:14:00,
2013-03-13 17:19:00,37.8,22.2,30.22,NW,317,19.0,30.0,53,0.00,,,0.00,Wunderground v.1.15,2013-03-13 22:19:00,
2013-03-13 17:24:00,37.5,22.3,30.23,WNW,302,7.0,28.0,54,0.00,,,0.00,Wunderground v.1.15,2013-03-13 22:24:00,
2013-03-13 17:29:00,36.8,21.7,30.23,West,271,15.0,30.0,54,0.00,,,0.00,Wunderground v.1.15,2013-03-13 22:29:00,
2013-03-13 17:34:00,36.1,21.9,30.24,North,5,10.0,25.0,56,0.00,,,0.00,Wunderground v.1.15,2013-03-13 22:34:00,
2013-03-13 17:39:00,36.1,22.3,30.23,NNW,338,7.0,27.0,57,0.00,,,0.00,Wunderground v.1.15,2013-03-13 22:39:00,
2013-03-13 17:44:00,35.7,21.9,30.23,WNW,282,27.0,35.0,57,0.00,,,0.00,Wunderground v.1.15,2013-03-13 22:44:00,
2013-03-13 17:49:00,35.0,21.7,30.24,NW,310,24.0,35.0,58,0.00,,,0.00,Wunderground v.1.15,2013-03-13 22:49:00,
2013-03-13 17:54:00,34.6,21.3,30.24,WNW,296,6.0,31.0,58,0.00,,,0.00,Wunderground v.1.15,2013-03-13 22:54:00,
2013-03-13 17:59:00,34.4,21.9,30.24,SE,146,5.0,31.0,60,0.00,,,0.00,Wunderground v.1.15,2013-03-13 22:59:00,
2013-03-13 18:04:00,34.4,21.9,30.25,NNW,347,21.0,27.0,60,0.00,,,0.00,Wunderground v.1.15,2013-03-13 23:04:00,
2013-03-13 18:09:00,33.9,21.9,30.25,WSW,256,10.0,29.0,61,0.00,,,0.00,Wunderground v.1.15,2013-03-13 23:09:00,
2013-03-13 18:14:00,33.5,21.9,30.25,NW,312,22.0,29.0,62,0.00,,,0.00,Wunderground v.1.15,2013-03-13 23:14:00,
2013-03-13 18:19:00,33.5,21.9,30.25,WNW,294,12.0,29.0,62,0.00,,,0.00,Wunderground v.1.15,2013-03-13 23:19:00,
2013-03-13 18:24:00,33.6,21.2,30.25,WNW,297,21.0,27.0,60,0.00,,,0.00,Wunderground v.1.15,2013-03-13 23:24:00,
2013-03-13 18:29:00,33.4,21.4,30.26,NNW,336,11.0,32.0,61,0.00,,,0.00,Wunderground v.1.15,2013-03-13 23:29:00,
2013-03-13 18:34:00,33.0,21.4,30.26,NW,306,25.0,28.0,62,0.00,,,0.00,Wunderground v.1.15,2013-03-13 23:34:00,
2013-03-13 18:39:00,32.7,21.5,30.26,West,279,18.0,28.0,63,0.00,,,0.00,Wunderground v.1.15,2013-03-13 23:39:00,
2013-03-13 18:44:00,32.2,21.4,30.26,WNW,302,7.0,31.0,64,0.00,,,0.00,Wunderground v.1.15,2013-03-13 23:44:00,
2013-03-13 18:50:00,31.6,20.8,30.26,West,276,9.0,19.0,64,0.00,,,0.00,Wunderground v.1.15,2013-03-13 23:50:00,
2013-03-13 18:55:00,31.2,20.8,30.25,WNW,294,12.0,31.0,65,0.00,,,0.00,Wunderground v.1.15,2013-03-13 23:55:00,
2013-03-13 19:00:00,31.0,21.0,30.26,NW,326,30.0,30.0,66,0.00,,,0.00,Wunderground v.1.15,2013-03-14 00:00:00,
2013-03-13 19:05:00,30.8,21.1,30.26,NE,50,16.0,31.0,67,0.00,,,0.00,Wunderground v.1.15,2013-03-14 00:05:00,
2013-03-13 19:10:00,30.6,20.9,30.26,NW,304,30.0,30.0,67,0.00,,,0.00,Wunderground v.1.15,2013-03-14 00:10:00,
2013-03-13 19:15:00,30.4,20.7,30.26,NW,325,20.0,30.0,67,0.00,,,0.00,Wunderground v.1.15,2013-03-14 00:15:00,
2013-03-13 19:20:00,30.2,20.9,30.27,West,275,11.0,18.0,68,0.00,,,0.00,Wunderground v.1.15,2013-03-14 00:20:00,
2013-03-13 19:25:00,29.9,20.6,30.27,North,360,11.0,30.0,68,0.00,,,0.00,Wunderground v.1.15,2013-03-14 00:25:00,
2013-03-13 19:30:00,29.8,20.2,30.27,SW,229,13.0,20.0,67,0.00,,,0.00,Wunderground v.1.15,2013-03-14 00:30:00,
2013-03-13 19:35:00,29.6,20.0,30.27,East,94,13.0,33.0,67,0.00,,,0.00,Wunderground v.1.15,2013-03-14 00:35:00,
2013-03-13 19:40:00,29.4,20.1,30.28,NW,311,29.0,29.0,68,0.00,,,0.00,Wunderground v.1.15,2013-03-14 00:40:00,
2013-03-13 19:45:00,29.3,19.7,30.28,NNW,335,9.0,35.0,67,0.00,,,0.00,Wunderground v.1.15,2013-03-14 00:45:00,
2013-03-13 19:50:00,29.1,19.8,30.28,NW,319,24.0,25.0,68,0.00,,,0.00,Wunderground v.1.15,2013-03-14 00:50:00,
2013-03-13 19:55:00,29.0,19.8,30.28,NW,323,20.0,28.0,68,0.00,,,0.00,Wunderground v.1.15,2013-03-14 00:55:00,
2013-03-13 20:00:00,28.8,19.2,30.28,NW,313,22.0,24.0,67,0.00,,,0.00,Wunderground v.1.15,2013-03-14 01:00:00,
2013-03-13 20:05:00,28.7,19.1,30.27,WNW,298,17.0,32.0,67,0.00,,,0.00,Wunderground v.1.15,2013-03-14 01:05:00,
2013-03-13 20:10:00,28.6,19.4,30.27,NNW,336,27.0,27.0,68,0.00,,,0.00,Wunderground v.1.15,2013-03-14 01:10:00,
2013-03-13 20:15:00,28.5,19.3,30.28,NW,306,22.0,30.0,68,0.00,,,0.00,Wunderground v.1.15,2013-03-14 01:15:00,
2013-03-13 20:20:00,28.3,19.1,30.28,NW,314,5.0,30.0,68,0.00,,,0.00,Wunderground v.1.15,2013-03-14 01:20:00,
2013-03-13 20:25:00,28.2,19.0,30.28,WNW,292,21.0,30.0,68,0.00,,,0.00,Wunderground v.1.15,2013-03-14 01:25:00,
2013-03-13 20:30:00,28.1,18.9,30.27,SSW,201,7.0,25.0,68,0.00,,,0.00,Wunderground v.1.15,2013-03-14 01:30:00,
2013-03-13 20:35:00,28.1,18.5,30.28,NW,323,13.0,29.0,67,0.00,,,0.00,Wunderground v.1.15,2013-03-14 01:35:00,
2013-03-13 20:40:00,28.1,18.5,30.28,West,279,16.0,30.0,67,0.00,,,0.00,Wunderground v.1.15,2013-03-14 01:40:00,
2013-03-13 20:45:00,28.1,18.5,30.28,South,178,12.0,30.0,67,0.00,,,0.00,Wunderground v.1.15,2013-03-14 01:45:00,
2013-03-13 20:50:00,28.0,18.8,30.28,NW,304,22.0,23.0,68,0.00,,,0.00,Wunderground v.1.15,2013-03-14 01:50:00,
2013-03-13 20:55:00,27.9,18.7,30.28,WNW,289,14.0,29.0,68,0.00,,,0.00,Wunderground v.1.15,2013-03-14 01:55:00,
2013-03-13 21:00:00,27.8,18.6,30.28,WNW,283,8.0,27.0,68,0.00,,,0.00,Wunderground v.1.15,2013-03-14 02:00:00,
2013-03-13 21:05:00,27.7,18.5,30.29,West,279,7.0,27.0,68,0.00,,,0.00,Wunderground v.1.15,2013-03-14 02:05:00,
2013-03-13 21:10:00,27.6,18.4,30.29,NNE,14,13.0,27.0,68,0.00,,,0.00,Wunderground v.1.15,2013-03-14 02:10:00,
2013-03-13 21:16:00,27.6,18.4,30.29,NW,305,25.0,28.0,68,0.00,,,0.00,Wunderground v.1.15,2013-03-14 02:16:00,
2013-03-13 21:21:00,27.5,18.7,30.30,WSW,244,18.0,22.0,69,0.00,,,0.00,Wunderground v.1.15,2013-03-14 02:21:00,
2013-03-13 21:26:00,27.4,18.2,30.30,South,174,10.0,24.0,68,0.00,,,0.00,Wunderground v.1.15,2013-03-14 02:26:00,
2013-03-13 21:31:00,27.4,18.6,30.29,NW,314,21.0,22.0,69,0.00,,,0.00,Wunderground v.1.15,2013-03-14 02:31:00,
2013-03-13 21:36:00,27.3,18.5,30.29,West,279,21.0,24.0,69,0.00,,,0.00,Wunderground v.1.15,2013-03-14 02:36:00,
2013-03-13 21:41:00,27.2,18.4,30.29,WNW,298,26.0,27.0,69,0.00,,,0.00,Wunderground v.1.15,2013-03-14 02:41:00,
2013-03-13 21:46:00,27.2,18.0,30.29,East,84,17.0,28.0,68,0.00,,,0.00,Wunderground v.1.15,2013-03-14 02:46:00,
2013-03-13 21:51:00,27.2,18.0,30.29,NNW,328,20.0,23.0,68,0.00,,,0.00,Wunderground v.1.15,2013-03-14 02:51:00,
2013-03-13 21:56:00,27.0,18.2,30.30,NW,318,22.0,26.0,69,0.00,,,0.00,Wunderground v.1.15,2013-03-14 02:56:00,
2013-03-13 22:01:00,26.9,18.1,30.30,WNW,297,13.0,22.0,69,0.00,,,0.00,Wunderground v.1.15,2013-03-14 03:01:00,
2013-03-13 22:06:00,26.9,18.1,30.30,NW,305,19.0,25.0,69,0.00,,,0.00,Wunderground v.1.15,2013-03-14 03:06:00,
2013-03-13 22:12:00,26.7,18.2,30.30,SSW,204,10.0,21.0,70,0.00,,,0.00,Wunderground v.1.15,2013-03-14 03:12:00,
2013-03-13 22:17:00,26.7,18.2,30.31,WNW,289,13.0,27.0,70,0.00,,,0.00,Wunderground v.1.15,2013-03-14 03:17:00,
2013-03-13 22:22:00,26.6,18.1,30.31,WNW,297,17.0,23.0,70,0.00,,,0.00,Wunderground v.1.15,2013-03-14 03:22:00,
2013-03-13 22:27:00,26.5,18.0,30.30,NW,314,21.0,26.0,70,0.00,,,0.00,Wunderground v.1.15,2013-03-14 03:27:00,
2013-03-13 22:32:00,26.4,18.3,30.31,NW,318,24.0,24.0,71,0.00,,,0.00,Wunderground v.1.15,2013-03-14 03:32:00,
2013-03-13 22:37:00,26.3,17.8,30.31,WNW,302,25.0,29.0,70,0.00,,,0.00,Wunderground v.1.15,2013-03-14 03:37:00,
2013-03-13 22:42:00,26.3,17.8,30.31,NW,325,6.0,23.0,70,0.00,,,0.00,Wunderground v.1.15,2013-03-14 03:42:00,
2013-03-13 22:47:00,26.1,18.0,30.31,WNW,296,14.0,25.0,71,0.00,,,0.00,Wunderground v.1.15,2013-03-14 03:47:00,
2013-03-13 22:52:00,26.1,18.0,30.31,NW,304,20.0,26.0,71,0.00,,,0.00,Wunderground v.1.15,2013-03-14 03:52:00,
2013-03-13 22:57:00,26.0,17.9,30.31,WNW,296,15.0,26.0,71,0.00,,,0.00,Wunderground v.1.15,2013-03-14 03:57:00,
2013-03-13 23:00:00,25.9,17.8,30.31,WNW,284,29.0,29.0,71,0.00,,,0.00,Wunderground v.1.15,2013-03-14 04:00:00,
2013-03-13 23:05:00,25.9,17.8,30.31,NNW,344,15.0,29.0,71,0.00,,,0.00,Wunderground v.1.15,2013-03-14 04:05:00,
2013-03-13 23:10:00,25.8,17.7,30.31,NW,306,25.0,25.0,71,0.00,,,0.00,Wunderground v.1.15,2013-03-14 04:10:00,
2013-03-13 23:15:00,25.8,17.7,30.31,NW,320,25.0,32.0,71,0.00,,,0.00,Wunderground v.1.15,2013-03-14 04:15:00,
2013-03-13 23:20:00,25.7,17.6,30.31,NNW,342,26.0,26.0,71,0.00,,,0.00,Wunderground v.1.15,2013-03-14 04:20:00,
2013-03-13 23:25:00,25.7,17.6,30.31,NNW,348,16.0,28.0,71,0.00,,,0.00,Wunderground v.1.15,2013-03-14 04:25:00,
2013-03-13 23:30:00,25.6,17.5,30.30,NNW,342,11.0,25.0,71,0.00,,,0.00,Wunderground v.1.15,2013-03-14 04:30:00,
2013-03-13 23:35:00,25.5,17.7,30.30,WNW,286,14.0,28.0,72,0.00,,,0.00,Wunderground v.1.15,2013-03-14 04:35:00,
2013-03-13 23:40:00,25.4,17.6,30.30,NW,313,12.0,22.0,72,0.00,,,0.00,Wunderground v.1.15,2013-03-14 04:40:00,